GFSCGP_prec_cthk_108.txt.gz
RH
21 30 50 58 53 55 66 67 81 86 85 95 96 97 95 87 79 56 56 57 58 62 61 57 61 52 52 47 51 62 64 53 50 53 54 59 62 62 62 64 58 57 59 55
22 26 41 63 55 51 60 65 76 85 86 86 90 95 93 89 81 69 53 55 58 60 59 57 56 53 52 47 49 54 65 61 56 54 57 63 61 63 63 64 60 62 57 54
20 23 47 54 53 53 64 67 72 78 88 86 85 90 99 96 89 83 68 57 57 59 60 56 52 54 53 50 48 45 57 69 64 63 61 60 63 65 64 67 65 59 56 48
23 25 37 53 54 55 56 61 70 74 78 81 79 88 94 96 94 90 80 67 59 56 63 60 57 57 53 49 48 45 47 57 64 66 60 61 71 74 71 65 65 60 53 48
26 27 32 45 58 56 56 59 66 68 68 69 71 77 82 87 93 89 85 71 59 64 65 65 59 59 55 48 44 44 42 50 56 66 72 70 68 68 67 65 61 59 57 52
33 29 33 34 45 53 57 64 67 73 67 62 66 70 81 76 76 75 86 81 65 58 63 58 59 65 59 51 44 42 41 45 47 58 74 70 72 66 66 64 65 60 59 56
29 27 32 32 37 48 59 67 70 74 68 64 59 63 61 62 66 70 72 76 73 62 56 55 58 52 51 52 44 43 39 39 45 47 59 73 75 70 70 66 61 63 59 59
29 28 29 26 29 35 50 62 59 68 64 58 65 63 62 60 63 67 70 73 76 71 63 52 50 55 51 50 49 47 39 37 38 40 47 58 72 77 74 72 60 60 60 60
30 30 28 27 26 27 37 50 53 53 53 58 62 60 62 61 64 64 69 72 72 75 70 63 58 55 57 55 52 49 48 44 41 39 40 45 54 70 73 71 64 57 56 58
32 31 27 24 25 24 30 36 46 47 49 51 62 57 55 59 59 60 59 67 71 75 72 72 74 71 66 59 60 60 53 52 48 45 42 40 41 48 61 78 77 70 60 52
34 27 34 25 21 24 25 24 30 36 39 41 49 53 48 54 56 58 59 61 71 77 79 72 76 80 78 79 70 66 63 60 59 56 48 46 44 40 47 70 76 75 76 68
41 37 41 32 27 23 27 25 26 25 36 44 45 61 58 53 59 61 63 65 71 77 81 80 79 80 80 83 79 75 77 69 69 60 63 59 49 46 40 48 67 81 86 77
47 40 44 44 39 27 24 28 27 32 30 35 39 38 56 48 58 65 67 69 72 78 83 84 84 81 84 84 84 84 84 87 88 74 64 78 62 58 45 41 44 69 81 79
46 46 48 43 44 36 33 30 29 30 37 36 36 41 55 49 61 64 67 74 76 75 82 83 84 83 85 83 84 86 88 90 90 88 84 76 76 78 64 45 36 38 61 74
47 47 49 47 50 44 44 34 29 29 31 35 33 39 47 45 53 61 63 68 72 75 81 82 83 80 79 85 86 88 90 88 88 87 90 85 85 85 86 61 43 39 45 61
46 53 48 46 42 44 42 40 33 31 36 38 42 48 55 45 47 50 56 61 68 71 74 75 75 81 84 84 81 80 82 83 87 89 93 95 91 89 90 90 64 40 45 53
50 56 55 50 44 49 45 46 44 44 42 43 45 52 57 53 53 52 56 64 72 78 76 76 74 73 77 83 82 83 82 79 83 86 94 96 94 98 98 92 88 67 56 54
52 52 55 55 56 54 55 51 47 51 51 52 51 52 51 55 58 56 55 65 71 76 74 73 72 75 73 77 83 80 72 76 77 78 84 84 90 91 99 97 91 90 84 80
47 50 57 54 55 54 59 57 56 57 58 56 57 53 53 52 56 57 60 61 65 73 75 73 74 78 82 76 75 74 76 80 81 79 73 75 75 86 79 91 87 86 88 89
57 57 56 60 58 68 73 58 55 57 65 66 65 62 62 58 63 60 61 60 64 67 69 71 78 78 82 86 88 86 88 90 89 87 81 77 73 75 83 86 83 77 81 89
54 54 63 60 63 63 61 60 53 58 68 60 66 67 67 67 63 63 69 72 71 71 69 72 76 76 80 84 85 88 89 90 88 88 83 83 76 72 70 67 71 68 66 69
51 51 45 50 58 66 60 60 65 70 64 59 70 68 70 71 71 74 75 80 82 79 78 78 80 83 83 82 84 83 86 85 84 83 81 78 74 69 59 53 55 58 63 63
39 37 49 42 53 47 52 57 64 65 66 64 68 72 72 74 80 81 82 84 85 83 83 80 79 81 82 78 75 71 69 72 75 74 69 65 60 50 47 45 44 43 42 41
39 39 45 45 50 48 49 45 44 58 63 68 69 72 71 75 81 83 88 91 91 89 88 83 78 73 67 65 66 63 58 55 52 47 43 41 40 34 34 33 33 34 34 33
45 41 45 47 46 43 42 43 43 42 44 59 67 70 72 74 80 84 91 93 93 93 90 86 77 72 73 67 62 58 52 48 46 46 45 43 41 39 38 35 35 32 31 31
40 43 46 53 53 48 52 43 40 40 40 45 48 55 64 71 78 85 90 93 91 92 89 80 74 77 70 63 59 55 48 43 47 45 42 40 40 37 36 33 31 31 30 29

GFSCGP_prec_cthk_111.txt.gz
RH
19 26 39 55 55 57 70 70 79 81 91 95 97 97 87 84 78 62 56 58 66 61 61 59 58 56 56 55 57 57 55 49 54 56 56 62 66 69 70 70 62 57 56 49
20 23 34 58 59 55 57 76 90 86 93 92 92 96 94 88 87 75 57 59 61 64 64 59 62 56 57 54 62 63 60 50 52 56 64 65 66 62 68 65 59 59 63 53
21 21 31 51 64 50 52 74 86 75 89 91 89 94 98 89 82 65 64 62 55 58 65 56 60 57 56 52 56 63 67 59 54 59 62 67 68 63 62 72 62 59 59 57
23 26 28 45 55 50 53 63 72 84 74 84 79 96 95 95 87 77 70 73 62 73 61 59 57 66 56 53 51 53 67 69 61 60 71 63 73 70 72 66 65 62 54 57
22 28 29 41 50 51 57 54 84 73 69 70 79 84 96 95 88 86 62 67 66 57 69 71 52 52 56 58 52 52 52 64 70 63 65 68 74 77 71 70 68 67 53 54
33 29 30 35 49 51 54 55 64 64 66 63 62 70 89 89 84 82 85 77 58 60 58 81 53 72 75 55 54 49 45 50 60 67 73 71 67 83 79 67 67 63 62 57
30 34 32 36 43 46 48 59 73 79 67 65 66 62 64 67 65 70 78 78 66 80 52 58 68 70 52 67 53 51 45 49 48 62 78 74 75 66 66 66 67 73 66 67
27 31 32 29 40 39 44 53 73 69 67 69 57 62 75 58 61 68 72 77 72 66 67 65 64 72 72 69 55 52 42 42 45 48 58 74 75 72 70 70 68 59 66 62
30 32 32 28 26 35 37 48 52 68 54 62 68 57 65 64 63 68 72 70 74 80 61 63 58 73 50 55 55 55 47 43 42 43 44 54 69 77 76 83 69 64 59 62
39 35 36 33 27 26 29 39 42 49 55 63 67 68 54 60 61 63 70 67 72 74 70 68 63 57 70 54 59 59 51 46 45 44 41 41 48 60 69 73 66 66 72 58
36 34 33 32 27 25 24 26 36 41 41 48 60 64 67 51 55 59 65 71 71 74 70 80 71 69 57 68 62 63 58 57 57 54 49 45 42 44 49 59 76 76 67 62
29 38 33 36 33 24 27 28 27 30 38 34 36 54 65 66 55 57 62 64 69 71 73 78 69 85 75 78 70 61 68 66 64 62 64 54 50 44 44 42 60 77 72 77
51 33 37 37 34 29 22 26 28 25 26 29 31 51 56 54 63 60 63 64 71 73 76 78 78 80 80 84 83 83 80 76 74 70 70 68 67 60 50 46 43 56 76 84
39 41 45 45 56 48 40 25 31 27 25 25 26 56 55 54 53 61 62 65 70 78 79 80 83 84 83 84 84 86 87 84 82 87 94 92 81 71 73 60 46 47 53 73
40 40 44 47 48 48 44 33 27 30 30 32 26 31 53 49 44 47 60 68 73 74 78 81 86 87 83 83 82 83 88 90 84 85 88 92 95 85 81 70 68 57 45 46
45 45 46 46 51 49 42 41 39 32 31 30 32 38 38 75 51 47 58 65 69 73 78 78 88 83 82 86 81 83 88 86 79 79 87 93 96 94 96 85 88 87 58 43
51 49 47 43 41 42 49 42 39 37 34 29 34 49 40 76 66 54 56 62 68 72 73 75 82 85 81 78 83 89 89 86 79 76 84 87 92 93 95 90 98 96 84 63
53 51 53 53 52 50 42 45 49 49 58 49 56 48 71 65 59 50 51 58 64 70 72 72 75 80 78 78 81 89 94 87 82 75 81 81 93 97 99 98 99 96 92 82
51 58 53 51 70 65 68 55 55 48 55 59 43 61 74 59 57 52 52 54 58 63 71 75 76 77 75 76 79 86 89 83 76 72 76 78 78 80 87 94 98 96 94 87
52 49 49 60 58 78 78 79 58 56 59 79 75 68 52 52 45 48 51 56 56 56 60 69 75 77 78 79 78 77 77 75 74 76 77 76 78 78 83 81 93 87 89 89
54 58 50 49 59 69 78 66 60 64 75 67 69 67 65 64 63 57 53 58 58 58 59 65 71 74 77 80 82 78 77 80 80 84 88 86 85 83 77 74 79 81 81 84
55 65 59 53 63 72 68 65 64 79 76 70 70 79 71 71 73 67 61 62 62 63 62 62 66 68 76 83 85 88 84 83 88 90 92 91 87 85 80 73 68 67 71 77
35 40 54 57 68 66 53 57 55 64 66 68 61 83 72 73 75 69 68 67 69 70 72 72 70 70 71 74 79 82 86 88 90 90 87 89 89 84 84 78 69 60 60 58
43 36 33 47 50 44 41 45 47 47 50 63 68 71 70 68 73 78 76 74 76 80 79 78 77 71 72 72 72 74 76 76 77 79 79 80 79 79 77 76 68 54 50 49
53 52 41 47 59 51 48 47 41 48 47 48 64 66 69 71 74 75 80 84 86 86 85 83 77 70 66 69 69 70 71 68 69 69 65 66 65 66 53 46 45 37 37 34
46 42 50 54 60 59 60 55 44 42 46 43 47 63 72 74 75 77 81 86 89 90 89 84 74 74 69 66 61 62 61 60 62 64 63 61 56 50 47 43 41 38 35 35

GFSCGP_prec_cthk_114.txt.gz
RH
22 25 31 38 53 61 64 71 85 89 92 91 98 98 88 83 82 70 53 53 55 61 53 53 55 55 47 45 59 46 48 50 46 51 64 65 57 62 61 54 53 50 42 44
21 20 30 41 56 67 62 67 84 92 92 90 92 92 89 89 86 78 59 59 56 54 60 53 60 53 47 45 53 53 52 44 49 52 54 59 62 61 59 54 50 63 51 44
23 19 27 38 54 58 64 62 76 84 96 94 89 95 94 88 88 74 63 65 55 60 82 55 56 59 49 46 54 59 56 43 53 59 62 64 59 55 58 56 50 50 53 49
21 23 24 32 44 61 57 67 79 93 95 92 86 94 97 95 93 89 75 61 71 60 59 56 63 55 49 44 49 60 62 50 51 57 66 71 65 60 58 58 55 55 50 54
18 24 28 27 35 52 68 63 75 87 90 80 89 85 92 92 94 95 90 58 78 77 67 67 53 57 62 61 41 46 55 64 59 54 57 64 67 68 67 57 58 51 45 48
22 24 28 28 45 48 61 63 72 76 91 93 77 74 77 81 73 80 65 67 60 61 66 78 79 48 54 48 46 37 41 58 62 59 67 68 70 73 73 66 59 57 48 46
20 33 33 29 32 50 59 54 70 85 85 79 69 70 68 66 67 69 63 65 77 70 64 68 84 55 55 80 63 39 35 37 51 63 65 70 73 73 81 66 56 58 56 56
23 28 26 27 31 50 41 43 62 69 77 78 75 71 69 55 59 61 65 67 63 74 73 74 70 65 76 72 79 46 34 30 36 50 61 73 78 71 67 60 59 91 69 70
34 24 33 32 29 40 41 38 45 61 79 75 77 91 69 58 58 62 65 68 70 65 77 76 59 65 72 77 71 58 35 29 31 35 42 58 68 70 69 69 59 62 64 66
39 38 26 35 28 27 33 38 40 51 67 71 78 81 96 73 66 69 68 66 67 74 78 66 67 69 69 72 75 64 34 33 29 35 33 34 49 60 67 70 70 68 62 55
40 36 32 35 33 26 22 27 31 37 49 63 71 66 67 78 80 66 67 67 67 62 68 71 70 78 64 76 63 58 48 37 32 36 31 32 30 38 52 55 61 68 73 76
32 34 37 38 32 30 25 29 20 29 36 41 47 48 52 57 77 70 74 67 67 67 68 67 70 75 76 60 68 71 55 40 39 40 39 35 31 32 33 38 41 60 75 78
40 33 31 35 36 36 30 25 27 23 26 30 33 56 53 50 51 57 62 71 67 66 68 66 68 92 80 78 74 86 66 71 63 76 64 51 61 46 40 35 34 35 51 62
35 39 41 49 46 50 43 35 23 24 25 24 25 45 42 40 49 51 58 61 62 64 65 75 82 80 81 83 87 82 78 83 92 68 66 66 71 64 74 58 54 44 38 45
28 34 39 43 46 47 44 46 40 26 28 25 23 47 51 49 55 56 56 58 63 63 69 70 74 86 85 91 82 86 84 88 89 90 85 83 83 84 88 89 73 64 49 37
37 35 34 46 45 48 46 48 45 33 25 27 26 33 36 57 57 79 69 76 64 67 75 78 87 84 87 78 76 78 83 80 82 83 81 82 83 82 89 88 92 93 76 70
47 51 51 44 45 51 43 48 49 40 29 30 30 57 58 50 54 76 81 75 72 76 78 84 82 82 85 79 74 73 72 77 77 82 84 75 77 79 85 90 94 99 94 91
45 45 47 54 50 71 59 51 55 62 65 55 61 76 60 59 61 65 69 68 68 63 69 77 78 84 83 87 82 75 72 77 82 82 81 79 76 81 88 92 96 94 97 95
47 43 46 63 69 53 60 57 58 60 55 63 68 69 62 67 68 75 74 69 66 69 62 71 75 83 81 84 83 80 79 82 87 88 84 76 72 77 81 93 98 99 98 97
52 51 46 57 63 81 77 66 61 55 66 63 65 69 80 85 64 63 76 66 62 61 62 66 73 77 74 80 79 78 78 81 83 87 83 73 73 73 72 69 76 86 97 97
61 49 41 49 62 74 72 65 61 67 75 61 59 74 71 81 77 93 74 67 57 59 56 57 60 68 71 76 77 76 78 76 80 85 82 76 74 78 78 75 74 71 76 89
50 73 66 56 57 60 53 68 86 71 72 70 64 59 85 74 87 81 70 68 59 56 52 54 56 58 65 72 79 79 81 81 82 85 84 84 84 87 84 82 78 72 68 70
41 40 53 77 82 71 60 62 65 58 65 62 58 73 86 76 78 82 74 67 63 60 60 60 62 61 62 65 70 75 80 81 82 82 86 90 91 91 90 89 85 79 71 67
45 38 31 35 61 51 46 45 42 37 42 53 63 78 85 67 69 71 81 77 71 67 67 66 65 65 64 65 64 68 73 76 79 81 82 85 88 92 90 88 85 85 79 66
50 46 47 37 45 48 46 46 42 41 41 44 49 52 64 63 64 67 72 75 76 75 73 74 71 68 65 66 68 68 69 70 71 71 74 77 81 86 87 87 89 84 81 70
47 46 43 48 53 52 58 51 46 47 45 41 43 47 53 60 69 68 70 75 76 84 83 77 74 72 71 67 66 69 71 70 70 74 82 83 80 77 77 75 71 66 64 55

GFSCGP_prec_cthk_117.txt.gz
RH
21 23 28 39 48 54 67 73 89 92 93 93 95 95 85 76 71 56 66 56 52 49 54 48 47 48 48 47 44 42 43 43 50 56 56 63 59 57 57 53 50 40 41 42
23 24 25 40 53 61 70 80 81 87 90 93 94 94 91 85 80 71 64 57 50 50 57 49 46 47 50 43 56 46 46 44 51 58 56 56 59 58 55 53 48 45 43 48
21 20 23 38 44 51 77 71 83 81 86 94 91 92 90 84 82 83 82 79 53 56 55 50 52 50 47 42 50 48 49 43 47 48 51 54 56 60 55 51 51 47 44 40
20 23 25 35 39 45 75 77 88 85 83 96 91 95 93 90 86 86 89 87 65 56 57 58 52 50 46 42 44 51 52 48 53 56 55 62 54 55 55 58 52 51 46 45
17 23 25 27 34 47 66 77 83 78 77 90 93 96 88 91 92 88 89 88 60 53 61 69 57 53 47 46 42 51 52 49 50 66 62 64 59 59 57 53 52 49 49 48
17 21 28 29 32 51 70 75 86 83 78 89 81 88 92 90 80 83 83 83 70 67 65 65 59 57 54 50 47 42 47 52 57 55 55 61 64 63 61 56 60 51 46 44
19 22 30 27 48 53 60 69 85 87 83 95 89 90 83 82 77 76 74 80 77 69 79 78 65 53 51 50 45 41 41 46 56 62 64 67 65 71 65 62 59 57 54 49
25 25 29 26 29 47 56 61 71 78 80 83 87 96 82 77 74 75 78 77 72 76 74 64 74 69 56 51 63 51 41 36 46 56 60 67 67 63 66 68 55 61 54 57
36 31 28 32 25 38 46 53 41 69 74 76 83 87 82 73 72 71 74 71 67 65 59 67 64 70 68 58 81 63 49 36 29 42 51 61 66 66 62 59 56 56 62 62
39 38 30 32 33 36 35 43 51 61 71 75 82 87 88 80 76 76 72 75 75 70 70 70 62 69 69 73 71 76 73 46 31 27 33 47 61 64 63 71 69 62 63 56
38 39 34 32 35 32 35 34 35 43 53 67 69 78 65 65 65 77 77 74 72 73 67 70 75 80 66 69 72 70 67 51 36 27 27 30 35 46 55 58 66 65 64 64
37 39 39 38 37 33 28 30 31 33 34 46 58 56 53 54 56 60 71 74 73 69 71 71 70 71 70 66 68 69 71 52 41 28 28 28 31 32 39 44 46 50 64 69
37 44 45 41 43 41 39 34 30 28 23 28 37 50 45 49 51 52 62 70 73 72 72 69 67 70 79 69 64 73 71 64 55 35 33 35 34 30 30 31 32 31 36 61
33 37 44 50 47 47 45 41 36 37 32 27 28 42 46 49 47 53 57 63 64 71 70 67 72 77 75 76 85 92 75 70 67 56 67 71 63 67 60 54 43 39 35 36
27 33 41 42 42 42 45 45 38 45 47 37 30 47 58 56 52 62 59 65 66 69 73 67 67 74 76 74 87 87 83 76 79 77 75 85 80 76 73 71 86 80 61 48
31 34 50 48 42 42 47 50 46 51 50 48 43 56 62 58 54 54 61 67 68 70 70 72 74 75 78 78 83 75 79 92 89 88 91 92 90 88 85 86 86 94 88 83
43 40 49 55 52 51 60 62 58 58 56 61 68 65 57 49 47 49 64 70 94 82 85 78 79 82 84 82 87 79 82 90 91 88 88 86 84 79 76 80 85 86 88 93
45 50 49 46 50 56 68 65 63 69 70 69 77 74 62 58 55 53 55 61 74 82 86 85 87 93 95 88 88 83 77 82 80 82 78 77 80 74 72 73 75 82 89 97
47 54 49 59 66 61 57 67 67 69 73 73 75 77 81 76 64 63 62 59 67 72 74 79 82 87 88 93 96 88 85 81 77 76 78 79 80 76 68 75 90 93 86 97
53 58 55 51 55 69 59 54 66 69 86 75 79 86 76 71 75 73 72 69 66 70 68 71 75 82 85 91 89 84 84 82 78 80 87 85 80 71 67 65 69 85 99 99
53 55 53 57 62 61 58 58 56 63 83 79 77 76 78 74 70 71 68 61 65 66 71 71 74 81 90 90 89 85 78 78 80 78 85 80 80 73 67 67 66 64 70 72
37 39 63 64 65 76 63 56 54 59 65 71 68 70 75 78 78 74 73 72 68 65 66 70 72 77 81 79 82 83 79 74 76 79 82 82 83 77 74 72 74 75 69 65
49 47 49 57 53 53 62 57 50 45 61 61 61 65 73 69 67 69 72 69 76 74 71 72 70 66 68 73 72 74 77 79 78 81 84 86 85 84 82 81 81 81 80 75
56 42 44 48 44 63 64 45 36 36 34 43 52 59 66 72 72 70 69 76 76 79 82 80 74 72 71 72 70 69 71 73 75 75 78 86 86 88 88 89 87 87 86 80
48 48 42 39 49 45 49 46 44 42 38 35 39 44 50 49 56 63 63 66 69 76 79 81 78 73 69 67 68 70 71 75 75 72 74 77 80 83 83 86 90 93 92 88
45 46 41 49 51 50 48 48 46 46 38 35 37 42 46 49 51 51 57 66 66 70 78 80 76 71 69 65 65 67 67 70 69 69 69 72 71 78 82 81 91 93 93 90

GFSCGP_prec_cthk_120.txt.gz
RH
21 28 31 33 41 45 67 73 89 88 89 93 87 96 91 76 76 71 52 55 59 57 51 54 50 47 52 55 47 42 44 60 58 57 52 51 52 47 47 45 38 39 59 58
24 24 26 35 53 54 68 77 90 92 90 89 93 90 93 91 80 78 58 52 51 55 53 53 52 49 46 55 47 41 45 50 55 57 62 55 51 51 48 50 42 39 48 49
24 18 26 39 50 60 58 63 87 86 88 92 90 92 95 89 89 78 68 65 62 54 52 55 51 46 48 52 50 44 45 50 55 56 58 59 56 57 58 54 50 41 45 53
21 21 25 38 47 53 58 63 73 91 91 95 89 93 90 88 89 85 78 70 61 55 52 56 52 47 51 45 50 46 47 47 50 52 55 59 59 57 54 49 45 46 45 46
23 22 27 36 42 47 64 66 67 84 93 91 91 94 84 90 88 86 83 77 76 66 52 59 57 53 53 46 46 53 49 46 54 64 65 60 59 58 54 53 49 50 52 51
24 23 25 31 36 43 61 70 76 87 90 90 89 91 84 88 83 81 82 81 84 77 65 56 62 56 52 48 48 49 57 48 54 67 63 69 60 61 58 51 51 49 45 48
28 24 31 41 56 67 60 66 88 92 95 88 87 93 83 81 82 83 81 82 85 85 66 60 64 59 55 47 48 46 49 56 52 59 66 65 68 64 61 56 58 53 44 44
29 29 32 38 41 51 53 60 73 75 81 84 89 90 78 72 73 76 80 84 88 85 71 62 70 58 55 51 52 44 39 44 56 60 63 68 67 69 66 68 63 57 57 51
37 34 30 36 35 33 47 57 56 71 73 74 79 74 66 69 67 72 75 84 90 85 74 67 71 66 56 50 48 51 44 37 43 58 62 70 71 70 62 67 62 66 66 62
33 36 33 31 37 36 39 46 53 65 75 71 73 71 67 64 60 67 72 79 84 80 81 79 79 67 68 60 59 61 47 39 31 35 50 58 66 67 68 65 64 63 59 70
38 38 40 34 34 39 34 38 44 48 59 73 78 66 49 49 53 63 67 73 76 74 73 69 70 69 73 72 65 74 70 65 48 30 31 36 52 65 68 68 73 75 68 62
38 44 41 39 41 36 34 41 42 40 35 51 47 44 38 44 48 57 66 70 69 68 70 75 74 73 76 69 66 76 75 78 68 37 31 28 31 37 49 55 59 65 66 68
36 46 47 47 46 41 43 43 46 39 35 35 42 32 38 45 48 52 64 69 73 69 71 77 78 69 70 71 72 74 80 74 68 48 33 29 28 28 30 38 41 44 48 63
35 44 48 52 52 48 49 48 48 45 52 44 33 30 41 45 47 51 64 67 71 73 71 71 75 75 73 72 73 74 78 79 78 62 44 31 28 31 29 31 33 32 33 32
36 40 48 50 51 53 55 54 54 54 50 52 44 54 55 63 55 56 57 56 67 72 72 71 74 77 75 74 79 77 78 81 82 81 72 54 53 60 64 68 68 60 50 46
34 37 43 52 53 54 57 59 59 53 50 49 51 55 63 66 59 61 69 64 66 74 78 75 71 76 76 78 82 83 85 80 87 90 82 87 76 85 86 80 81 84 77 86
35 35 41 51 53 51 59 60 62 61 60 60 63 68 64 67 66 66 66 77 76 78 75 74 77 77 76 83 93 80 85 80 87 92 92 92 91 89 91 93 86 83 85 88
37 44 47 48 54 61 63 60 60 60 64 62 59 68 70 73 75 70 71 65 71 71 73 78 83 94 86 87 94 87 90 88 96 92 84 92 84 86 89 88 83 78 79 81
41 44 51 60 57 55 57 59 63 66 69 66 62 62 67 66 78 79 76 72 73 68 69 75 87 89 96 92 90 96 96 94 92 88 87 88 86 89 87 83 76 69 78 80
46 46 55 62 58 53 55 52 52 58 69 66 65 68 68 67 74 81 80 77 70 68 69 78 82 83 86 97 94 91 94 97 95 90 90 93 94 93 92 81 71 72 86 99
53 54 53 60 61 63 56 52 55 56 58 57 66 68 65 72 73 75 79 71 69 66 66 67 69 71 75 86 95 93 96 98 98 95 94 97 94 88 87 77 68 68 66 84
39 40 47 55 64 57 56 54 62 60 56 53 58 63 67 70 72 77 73 73 71 68 65 65 69 72 76 80 89 97 97 96 95 93 90 89 89 88 85 84 73 73 71 69
43 43 47 43 45 51 52 58 56 56 55 57 57 55 59 60 68 72 72 71 71 73 73 67 66 70 73 82 85 90 87 89 90 89 85 84 85 87 89 92 79 78 78 77
47 46 47 43 41 39 42 56 41 45 46 39 40 45 46 56 62 66 69 67 67 71 71 68 68 66 75 78 80 83 83 80 80 80 83 83 83 88 88 90 87 85 82 82
43 42 44 48 44 38 44 46 45 39 42 39 34 31 39 47 50 58 59 63 69 70 69 70 68 67 75 76 75 78 77 79 77 71 72 78 77 82 84 90 91 89 86 84
40 36 35 43 35 40 42 45 44 39 39 35 37 34 34 37 38 46 46 51 61 67 70 72 69 69 73 75 77 78 75 75 73 71 73 73 74 76 78 80 83 89 89 88

GFSCGP_prec_cthk_123.txt.gz
RH
27 31 34 28 34 43 56 69 83 91 89 84 89 94 95 97 96 79 79 54 55 53 57 64 54 53 51 45 46 47 51 56 54 53 54 49 47 45 44 41 39 46 48 44
27 29 27 31 35 47 58 74 86 91 90 90 91 89 92 95 92 85 83 60 51 64 57 57 57 51 49 47 41 43 46 57 57 56 52 54 50 47 46 41 42 53 56 47
26 24 29 32 37 56 63 74 73 87 95 92 94 93 94 93 88 89 79 67 52 56 56 54 56 52 46 50 45 41 42 53 57 58 56 54 55 54 50 48 43 46 48 52
23 24 28 32 36 57 65 63 71 79 89 95 94 93 92 94 92 85 83 72 56 50 57 57 56 53 47 52 51 44 40 44 51 55 58 56 58 62 58 51 47 43 50 58
23 25 27 31 35 43 62 59 70 76 90 92 94 93 79 90 97 87 84 79 64 58 61 57 58 54 52 51 49 50 43 46 49 51 55 58 65 61 53 51 49 50 55 54
26 27 28 30 41 45 58 63 74 82 85 89 88 90 82 86 86 91 88 83 73 69 63 59 61 59 57 55 47 54 46 45 48 57 64 58 59 61 57 59 53 54 56 51
31 29 37 42 50 54 54 72 76 79 91 89 85 90 81 76 79 80 88 83 84 80 74 62 63 61 58 53 49 51 56 49 50 59 62 65 61 61 60 60 56 53 48 47
34 31 44 47 46 49 57 62 70 75 84 80 84 83 66 58 69 77 79 82 88 83 80 71 62 60 59 54 51 49 49 59 51 52 61 66 68 66 63 61 63 61 49 46
36 37 38 47 44 44 57 58 60 72 76 76 73 69 59 59 65 70 73 78 83 84 80 78 64 60 60 56 50 51 43 46 58 59 61 64 66 67 68 71 66 63 61 57
37 40 37 41 47 47 45 54 61 66 73 74 69 69 61 57 59 65 70 74 78 82 82 83 66 67 64 54 55 53 53 45 41 51 62 65 69 69 66 69 67 63 73 67
38 39 39 35 39 44 38 46 51 56 62 69 66 56 48 47 52 55 66 70 76 80 80 85 77 72 70 62 57 57 55 45 40 36 41 53 64 67 65 65 67 69 66 64
37 40 45 42 39 43 43 43 39 46 37 57 47 41 44 45 51 50 59 73 78 81 82 83 77 80 76 67 66 59 65 56 56 52 38 34 43 56 67 70 68 73 76 69
40 47 51 51 49 45 47 43 39 38 39 39 36 30 46 48 55 57 63 70 78 80 85 83 80 77 67 71 76 69 69 71 70 70 51 39 33 36 46 55 61 64 65 66
41 46 51 51 48 49 55 52 48 46 53 51 45 51 51 54 57 66 73 76 79 80 80 75 73 73 73 69 75 73 72 74 75 76 71 48 33 31 33 34 39 48 52 48
42 46 48 55 53 53 58 55 53 52 53 61 63 55 53 54 63 67 73 74 75 78 84 79 75 73 70 70 69 71 72 74 77 79 74 59 39 33 34 32 34 35 34 36
40 44 49 54 59 58 60 59 57 56 61 61 65 62 56 60 63 62 66 71 72 77 82 82 80 78 76 74 71 75 79 77 78 79 81 75 51 43 42 41 52 59 63 60
39 38 47 53 53 55 60 60 62 64 63 62 63 65 65 73 68 66 68 68 78 82 85 78 81 78 77 78 80 78 81 81 83 87 91 84 78 73 76 81 83 75 83 92
43 39 42 42 48 52 55 59 62 65 66 65 67 69 68 71 75 70 67 67 74 86 89 90 85 81 80 80 84 85 86 89 93 90 89 89 88 87 92 91 90 81 78 80
41 41 47 50 55 51 53 52 52 56 58 59 60 63 62 69 67 68 71 72 73 73 76 78 79 82 86 85 85 93 91 92 91 93 89 87 91 88 91 89 86 85 83 84
44 46 47 54 52 54 46 47 46 48 56 54 57 59 62 64 64 65 66 70 70 71 71 70 70 70 80 87 89 91 98 99 94 98 92 86 86 94 94 92 92 88 80 77
48 58 57 60 63 64 52 50 47 51 45 48 58 63 64 68 68 67 66 64 67 67 65 65 66 68 68 66 79 82 89 94 96 94 93 96 98 98 94 96 91 86 79 74
41 50 49 53 58 53 50 49 49 50 51 52 53 57 62 65 71 72 73 70 70 66 63 66 68 68 66 68 72 87 87 91 97 98 96 99 99 97 87 88 90 88 79 78
39 38 42 41 44 43 53 54 53 52 54 51 51 49 51 58 66 69 70 68 72 71 72 69 69 69 70 70 73 82 89 91 93 95 98 98 94 90 96 94 89 91 88 80
48 49 49 47 40 39 35 39 39 42 40 43 41 38 43 45 52 59 60 65 66 70 75 71 72 71 73 75 73 76 83 88 86 86 90 92 92 91 92 91 96 96 91 89
41 41 44 43 39 38 37 41 47 44 36 35 30 30 32 37 45 51 52 54 60 67 71 77 78 75 72 71 73 74 77 76 80 80 82 82 86 88 88 90 90 93 96 95
38 40 40 38 32 29 30 38 38 42 39 33 29 26 25 27 28 32 37 43 51 59 68 74 76 77 76 77 78 76 78 78 77 77 78 78 81 82 83 84 84 89 91 97

GFSCGP_prec_cthk_129.txt.gz
RH
18 29 31 36 46 37 43 49 62 74 74 76 81 91 93 95 96 89 71 60 53 46 56 56 57 54 51 51 48 54 59 58 62 61 58 57 55 56 54 58 56 55 55 52
21 28 35 38 41 45 47 54 60 69 73 73 80 83 89 91 96 85 81 61 52 54 52 56 57 54 49 50 49 49 54 55 53 56 57 54 51 53 50 52 49 50 51 50
23 27 34 39 37 44 51 53 59 58 69 76 81 82 83 85 89 85 81 59 52 49 48 55 58 55 49 48 47 46 50 53 49 48 48 47 47 53 49 51 44 50 46 47
23 26 33 37 37 38 41 55 63 57 64 73 79 86 82 79 85 85 77 61 56 48 45 52 56 55 50 48 49 49 48 53 53 51 49 44 42 45 48 44 51 55 46 45
24 26 30 36 36 42 44 59 61 58 63 73 82 84 76 79 80 79 80 70 72 50 47 45 51 55 50 49 49 47 49 53 53 52 49 48 45 47 50 48 50 49 48 55
23 22 25 26 34 35 45 57 60 62 64 67 70 77 70 79 70 72 78 79 72 45 44 47 52 56 53 50 48 45 44 48 52 53 55 54 55 56 52 49 48 50 54 60
21 22 26 27 33 40 42 49 58 69 69 67 73 81 65 65 65 64 69 79 78 62 48 50 51 55 52 54 49 44 41 43 50 52 53 57 58 55 52 50 48 52 53 55
25 24 30 30 27 31 36 44 53 68 65 63 76 74 62 62 60 63 69 75 81 75 64 52 51 53 52 53 51 50 43 45 44 50 52 57 56 55 54 53 52 53 49 51
30 31 38 38 36 38 51 53 56 67 68 65 61 63 60 57 62 65 70 79 77 76 62 52 50 52 51 51 50 50 50 48 48 54 62 60 59 57 56 56 53 51 49 49
35 39 40 50 52 51 48 51 57 64 70 60 56 60 58 56 62 60 66 77 81 79 73 60 52 53 52 53 51 48 54 53 49 52 57 62 66 65 64 61 57 59 59 52
40 40 40 53 56 58 55 55 57 66 67 64 60 53 56 57 58 62 56 70 83 82 78 73 70 56 54 56 53 47 48 51 56 53 55 58 63 68 70 66 65 64 64 61
44 42 42 43 46 48 51 52 52 54 56 61 58 48 53 58 57 58 57 59 71 81 83 84 81 76 65 56 57 53 50 49 51 56 59 62 64 65 68 70 68 68 65 62
39 44 46 47 45 49 52 52 44 41 49 53 47 45 55 58 58 60 62 63 69 76 85 84 86 82 76 64 59 59 54 54 48 43 46 51 58 63 67 68 67 66 65 67
45 45 49 48 52 53 56 57 50 43 41 47 51 59 57 60 60 59 63 72 79 77 86 84 84 84 87 83 64 62 63 60 55 53 52 53 51 45 45 52 64 69 70 72
44 51 55 54 54 53 61 57 59 56 55 50 60 61 61 64 62 63 63 74 81 81 90 94 92 93 92 91 80 69 71 68 67 63 59 55 59 60 49 43 40 43 58 69
42 53 57 60 58 59 59 53 61 64 65 62 61 57 62 60 61 63 63 71 80 84 87 86 93 96 94 93 88 82 81 77 71 72 71 70 66 69 71 69 52 36 33 39
44 51 58 60 58 54 56 61 64 63 65 63 63 65 67 64 63 65 67 68 80 81 85 84 86 88 90 97 95 89 85 81 76 79 79 78 78 79 83 79 70 58 39 36
38 44 47 51 52 53 54 59 62 63 63 64 67 68 71 70 72 70 72 76 76 80 80 83 84 84 87 91 89 86 84 83 80 88 83 83 84 82 83 87 84 77 58 47
33 38 43 43 46 46 46 50 54 56 58 62 62 65 60 62 68 71 72 72 75 77 81 81 84 82 85 94 89 85 86 85 84 82 84 85 86 86 93 97 95 88 82 77
33 38 39 48 44 46 40 42 46 44 44 46 52 58 60 59 60 67 67 66 71 71 71 73 78 78 75 82 83 85 85 86 86 89 84 86 91 90 92 99 99 95 96 94
37 44 44 48 48 47 43 45 46 47 43 46 47 49 52 56 57 60 66 66 64 65 61 63 69 76 78 80 85 88 92 92 86 89 88 85 79 86 92 98 98 96 99 96
34 38 43 51 53 51 53 54 50 50 49 50 52 51 51 51 52 56 63 64 64 65 63 62 64 65 70 74 77 75 78 77 76 74 74 77 86 92 96 96 97 95 99 99
39 34 35 39 41 38 41 47 50 53 52 49 46 44 44 47 48 50 52 53 59 63 63 64 64 66 69 73 76 75 74 73 73 75 74 79 90 88 93 95 99 99 96 94
41 40 41 42 41 41 40 39 41 41 45 47 39 37 39 40 42 42 47 51 50 52 63 65 68 67 67 71 74 77 78 79 80 80 77 74 76 75 82 90 92 92 95 95
47 45 45 41 37 38 36 38 40 39 37 36 34 30 31 27 31 37 38 43 51 53 57 60 67 72 75 77 76 76 77 81 78 79 76 76 78 83 84 90 94 96 97 97
42 37 35 32 32 34 28 28 32 38 40 40 35 30 24 23 24 28 31 35 38 43 50 56 61 67 72 74 79 82 85 85 84 83 83 81 81 81 88 90 92 92 99 96

GFSCGP_prec_cthk_132.txt.gz
RH
16 24 28 37 49 48 45 48 53 61 74 66 65 71 85 89 91 90 85 64 55 56 56 58 58 54 54 55 62 69 69 65 62 59 58 59 60 58 56 58 53 57 66 61
18 20 31 39 45 40 38 53 52 58 62 64 63 67 81 84 92 89 84 66 59 56 57 56 57 54 54 51 51 65 64 61 59 58 59 57 57 58 59 58 53 61 58 58
18 23 35 33 35 38 42 49 55 57 61 61 63 66 76 81 87 91 81 65 61 56 54 54 55 53 54 51 50 58 56 56 55 60 58 57 57 58 51 50 50 55 57 50
21 29 29 32 32 36 49 45 51 53 53 63 63 62 70 74 84 87 75 72 59 54 54 53 55 53 53 52 47 48 53 54 48 48 50 54 56 57 53 53 48 51 44 43
27 27 30 32 36 35 51 45 51 51 51 54 58 67 71 72 79 80 78 69 59 51 51 53 55 56 53 52 49 46 47 54 49 45 50 50 51 55 50 51 47 52 45 43
31 23 28 33 33 34 46 45 49 49 51 47 54 61 68 70 72 72 78 76 62 58 55 50 53 58 54 51 51 50 46 50 49 52 53 50 46 53 54 54 54 52 53 53
22 21 21 24 27 31 38 42 50 48 52 54 57 60 66 65 63 64 73 74 64 71 62 51 52 53 56 50 50 49 45 47 52 55 52 55 58 55 55 56 54 58 61 60
26 24 21 23 26 34 33 41 43 56 64 66 58 63 68 59 61 61 62 69 74 80 63 50 51 50 54 54 50 48 43 43 47 51 55 54 61 63 61 53 56 56 59 60
27 33 27 32 28 31 37 39 45 54 60 55 56 59 61 52 61 64 65 68 77 78 68 53 52 55 54 55 57 50 45 43 44 50 51 53 58 58 59 62 56 58 55 56
32 43 37 40 38 35 46 50 49 48 62 63 52 54 60 52 57 61 62 69 76 82 80 69 62 60 55 54 59 56 55 47 47 49 53 54 58 58 56 62 62 59 57 52
35 37 45 45 49 57 45 49 47 52 57 69 63 71 48 61 56 61 59 65 79 84 84 79 67 58 53 56 57 58 59 56 51 51 55 61 65 60 62 67 65 61 66 64
38 40 44 48 45 50 59 60 50 53 64 59 78 55 56 57 59 57 59 63 72 82 88 84 75 63 63 60 60 57 56 57 57 54 54 56 60 65 68 68 66 64 68 71
41 41 44 42 40 43 48 49 49 51 77 71 54 56 59 60 63 62 62 65 75 82 84 84 78 68 66 68 67 64 56 55 56 59 58 58 58 60 63 67 68 69 67 66
39 41 40 48 50 57 46 47 44 46 44 44 47 50 54 63 64 64 62 66 75 81 85 83 81 75 80 70 73 72 68 62 60 54 52 56 58 60 64 67 69 69 64 62
39 49 47 45 42 41 51 54 51 49 52 50 65 57 58 66 64 61 66 67 75 82 82 91 95 89 89 89 86 76 74 74 71 61 57 54 57 61 58 53 54 56 62 66
41 51 46 56 52 53 49 48 47 62 52 52 55 56 62 67 65 63 63 70 71 78 86 78 84 96 94 93 93 85 79 72 75 70 62 62 59 59 61 60 56 52 46 44
37 44 47 53 57 54 58 58 55 57 52 53 57 69 64 65 63 64 63 66 71 75 88 88 80 81 86 93 95 94 91 82 78 70 66 62 61 59 63 66 72 72 69 59
38 40 44 55 63 56 59 59 56 58 57 58 62 61 64 62 65 66 65 68 71 75 84 88 87 89 87 87 89 97 97 87 82 76 72 74 69 69 73 70 74 81 94 80
33 40 48 49 52 53 53 52 53 54 60 55 59 59 57 56 61 67 66 68 69 73 74 81 85 85 83 82 97 95 94 94 86 86 90 82 90 93 76 76 76 79 89 92
25 31 38 48 45 52 56 49 40 41 44 51 51 53 53 53 55 71 61 63 66 65 70 75 76 80 78 78 87 94 94 93 93 92 94 88 85 90 94 86 88 89 88 93
32 34 41 48 45 48 46 40 40 43 56 52 45 46 46 48 49 53 58 61 61 65 62 61 68 72 71 78 81 88 92 91 91 91 81 88 89 86 82 84 83 86 85 88
33 40 46 45 51 56 48 46 49 55 53 49 49 48 47 45 44 46 49 52 57 62 66 63 61 62 65 72 78 88 88 87 91 85 80 77 77 82 82 82 83 87 95 92
33 30 46 36 55 46 41 41 45 52 55 54 53 46 43 44 46 44 45 46 49 56 62 64 66 66 63 68 71 76 77 74 74 77 76 79 79 79 79 80 81 90 94 99
45 36 33 37 36 34 36 35 36 39 43 41 45 43 38 42 39 41 42 43 45 46 54 60 65 66 65 66 71 78 81 76 74 76 77 76 74 71 72 74 79 86 92 92
57 46 42 45 43 37 35 33 35 37 39 38 34 35 34 32 33 35 38 39 38 42 48 50 53 57 67 73 72 77 77 79 80 78 78 74 72 73 70 73 78 87 92 95
37 45 48 46 45 32 35 30 30 32 36 39 37 38 29 24 28 31 33 35 36 39 42 45 52 59 62 69 72 74 81 83 82 81 81 84 84 82 78 78 86 84 91 91